Orbital Elements at Epoch 2459200.5 (2020-Dec-17.0) TDB
Reference: JPL 39 (heliocentric ecliptic J2000)
Element | Value | Uncertainty (1-sigma) | Units |
e | .1988028014126237 | 8.9821e-09 | |
a | 2.761678478594108 | 9.9428e-09 | au |
q | 2.212649060448647 | 2.498e-08 | au |
i | 8.761579890212028 | 6.5814e-07 | deg |
node | 175.6013210538183 | 2.9533e-06 | deg |
peri | 271.0839735595178 | 7.6977e-06 | deg |
M | 54.89997447586451 | 5.4046e-06 | deg |
tp | 2458944.860628015504 (2020-Apr-05.36062802) | 2.4941e-05 | TDB |
period | 1676.324530075645 4.59 | 9.0528e-06 2.479e-08 | d yr |
n | .2147555521267441 | 1.1598e-09 | deg/d |
Q | 3.31070789673957 | 1.1919e-08 | au |
|
| | Orbit Determination Parameters
Additional Information
|